When you browse on this site, cookies collect data to enhance your experience and personalize the content and advertising you see.
Visit our Privacy Policy to learn more. By continuing to use the site, you agree to this use of cookies and data.
  • En España
  • Lista de países
  • Para 7 días
  • Temperatura del agua
  • Mapa Satelital
  • El tiempo en el mapa
  • Informadores
  • user-avatar
    Iniciar sesión

    Tiempo cada hora Djaipur

    Hoy, 18 Junio, Martes

    Tiempo Temperatura Precipitaciones Viento Presión Humedad
    00:00 +35°C° 0.1 mm 4 mps 717 mmHg 46%
    01:00 +34°C° 0.1 mm 4 mps 717 mmHg 49%
    02:00 +34°C° 0.1 mm 4 mps 717 mmHg 53%
    03:00 +33°C° 0.1 mm 4 mps 717 mmHg 55%
    04:00 +33°C° 0.1 mm 4 mps 717 mmHg 57%
    05:00 +32°C° 0.1 mm 4 mps 717 mmHg 59%
    06:00 +33°C° 0.5 mm 4 mps 717 mmHg 56%
    07:00 +34°C° 0.5 mm 5 mps 717 mmHg 54%
    08:00 +35°C° 0.5 mm 5 mps 718 mmHg 52%
    09:00 +34°C° 0.5 mm 5 mps 718 mmHg 51%
    10:00 +34°C° 0.5 mm 5 mps 718 mmHg 51%
    11:00 +34°C° 0.5 mm 5 mps 718 mmHg 51%
    12:00 +34°C° 2 mm 4 mps 718 mmHg 53%
    13:00 +33°C° 2 mm 3 mps 717 mmHg 54%
    14:00 +32°C° 2 mm 2 mps 716 mmHg 56%
    15:00 +34°C° 0 mm 2 mps 716 mmHg 51%
    16:00 +35°C° 0 mm 2 mps 716 mmHg 46%
    17:00 +35°C° 0 mm 1 mps 716 mmHg 40%
    18:00 +35°C° 0.1 mm 2 mps 716 mmHg 45%
    19:00 +34°C° 0.1 mm 3 mps 716 mmHg 50%
    20:00 +33°C° 0.1 mm 4 mps 716 mmHg 55%
    21:00 +32°C° 0 mm 4 mps 716 mmHg 59%
    22:00 +32°C° 0 mm 4 mps 716 mmHg 63%
    23:00 +30°C° 0 mm 3 mps 716 mmHg 67%

    Mañana, 19 Junio, Miércoles

    Tiempo Temperatura Precipitaciones Viento Presión Humedad
    00:00 +30°C° 0.6 mm 4 mps 716 mmHg 70%
    01:00 +29°C° 0.6 mm 5 mps 716 mmHg 73%
    02:00 +29°C° 0.6 mm 5 mps 716 mmHg 76%
    03:00 +28°C° 1.4 mm 5 mps 716 mmHg 76%
    04:00 +28°C° 1.4 mm 4 mps 716 mmHg 76%
    05:00 +27°C° 1.4 mm 3 mps 715 mmHg 76%
    06:00 +28°C° 0.1 mm 4 mps 716 mmHg 72%
    07:00 +29°C° 0.1 mm 4 mps 716 mmHg 68%
    08:00 +30°C° 0.1 mm 5 mps 716 mmHg 64%
    09:00 +32°C° 0 mm 4 mps 717 mmHg 60%
    10:00 +33°C° 0 mm 3 mps 717 mmHg 56%
    11:00 +34°C° 0 mm 2 mps 717 mmHg 52%
    12:00 +34°C° 0 mm 1 mps 716 mmHg 48%
    13:00 +35°C° 0 mm 1 mps 716 mmHg 44%
    14:00 +36°C° 0 mm 1 mps 715 mmHg 40%
    15:00 +37°C° 0 mm 1 mps 715 mmHg 38%
    16:00 +37°C° 0 mm 1 mps 715 mmHg 36%
    17:00 +39°C° 0 mm 1 mps 715 mmHg 34%
    18:00 +38°C° 0 mm 2 mps 715 mmHg 37%
    19:00 +37°C° 0 mm 3 mps 715 mmHg 40%
    20:00 +36°C° 0 mm 4 mps 715 mmHg 43%
    21:00 +36°C° 0.2 mm 4 mps 716 mmHg 45%
    22:00 +35°C° 0.2 mm 3 mps 716 mmHg 47%
    23:00 +35°C° 0.2 mm 2 mps 716 mmHg 48%

    Pasado mañana, 20 Junio, Jueves

    Tiempo Temperatura Precipitaciones Viento Presión Humedad
    00:00 +35°C° 0 mm 3 mps 716 mmHg 49%
    01:00 +35°C° 0 mm 4 mps 716 mmHg 50%
    02:00 +35°C° 0 mm 4 mps 716 mmHg 51%
    03:00 +34°C° 0 mm 4 mps 716 mmHg 52%
    04:00 +34°C° 0 mm 5 mps 716 mmHg 52%
    05:00 +34°C° 0 mm 5 mps 717 mmHg 53%
    06:00 +34°C° 0 mm 5 mps 717 mmHg 51%
    07:00 +35°C° 0 mm 6 mps 717 mmHg 49%
    08:00 +36°C° 0 mm 6 mps 718 mmHg 46%
    09:00 +38°C° 0 mm 6 mps 718 mmHg 43%
    10:00 +39°C° 0 mm 6 mps 718 mmHg 39%
    11:00 +41°C° 0 mm 6 mps 718 mmHg 35%
    12:00 +41°C° 0 mm 5 mps 718 mmHg 33%
    13:00 +42°C° 0 mm 4 mps 717 mmHg 30%
    14:00 +42°C° 0 mm 4 mps 717 mmHg 28%
    15:00 +41°C° 0.1 mm 5 mps 716 mmHg 31%
    16:00 +40°C° 0.1 mm 6 mps 716 mmHg 34%
    17:00 +38°C° 0.1 mm 7 mps 716 mmHg 37%
    18:00 +38°C° 0.1 mm 6 mps 716 mmHg 39%
    19:00 +36°C° 0.1 mm 5 mps 716 mmHg 41%
    20:00 +36°C° 0.1 mm 4 mps 717 mmHg 43%
    21:00 +36°C° 0 mm 4 mps 717 mmHg 43%
    22:00 +36°C° 0 mm 4 mps 717 mmHg 43%
    23:00 +35°C° 0 mm 3 mps 717 mmHg 44%

    21 Junio, Viernes

    Tiempo Temperatura Precipitaciones Viento Presión Humedad
    00:00 +35°C° 0 mm 3 mps 717 mmHg 46%
    01:00 +35°C° 0 mm 3 mps 717 mmHg 48%
    02:00 +34°C° 0 mm 3 mps 717 mmHg 49%
    03:00 +34°C° 0 mm 4 mps 717 mmHg 51%
    04:00 +34°C° 0 mm 4 mps 717 mmHg 52%
    05:00 +33°C° 0 mm 4 mps 717 mmHg 54%
    06:00 +34°C° 0 mm 5 mps 718 mmHg 52%
    07:00 +35°C° 0 mm 5 mps 718 mmHg 51%
    08:00 +35°C° 0 mm 6 mps 719 mmHg 49%
    09:00 +38°C° 0 mm 6 mps 719 mmHg 46%
    10:00 +39°C° 0 mm 6 mps 719 mmHg 43%
    11:00 +40°C° 0 mm 6 mps 719 mmHg 39%
    12:00 +40°C° 0 mm 5 mps 718 mmHg 37%
    13:00 +41°C° 0 mm 5 mps 718 mmHg 34%
    14:00 +42°C° 0 mm 4 mps 717 mmHg 31%
    15:00 +41°C° 0.3 mm 5 mps 717 mmHg 35%
    16:00 +39°C° 0.3 mm 5 mps 716 mmHg 39%
    17:00 +36°C° 0.3 mm 6 mps 716 mmHg 43%
    18:00 +35°C° 1.1 mm 6 mps 716 mmHg 48%
    19:00 +34°C° 1.1 mm 6 mps 717 mmHg 52%
    20:00 +33°C° 1.1 mm 6 mps 717 mmHg 57%
    21:00 +34°C° 0 mm 6 mps 717 mmHg 55%
    22:00 +34°C° 0 mm 5 mps 717 mmHg 53%
    23:00 +35°C° 0 mm 5 mps 717 mmHg 52%

    22 Junio, Sábado

    Tiempo Temperatura Precipitaciones Viento Presión Humedad
    00:00 +34°C° 0 mm 5 mps 717 mmHg 52%
    01:00 +34°C° 0 mm 6 mps 717 mmHg 52%
    02:00 +34°C° 0 mm 6 mps 717 mmHg 53%
    03:00 +33°C° 0 mm 6 mps 717 mmHg 54%
    04:00 +33°C° 0 mm 6 mps 717 mmHg 56%
    05:00 +33°C° 0 mm 5 mps 717 mmHg 57%
    06:00 +33°C° 0 mm 6 mps 717 mmHg 55%
    07:00 +34°C° 0 mm 6 mps 718 mmHg 53%
    08:00 +35°C° 0 mm 6 mps 718 mmHg 51%
    09:00 +36°C° 0 mm 6 mps 718 mmHg 46%
    10:00 +39°C° 0 mm 5 mps 718 mmHg 41%
    11:00 +41°C° 0 mm 5 mps 718 mmHg 35%
    12:00 +42°C° 0 mm 4 mps 718 mmHg 33%
    13:00 +42°C° 0 mm 3 mps 717 mmHg 30%
    14:00 +42°C° 0 mm 2 mps 716 mmHg 28%
    15:00 +42°C° 0 mm 3 mps 716 mmHg 29%
    16:00 +42°C° 0 mm 4 mps 716 mmHg 30%
    17:00 +41°C° 0 mm 5 mps 715 mmHg 32%
    18:00 +40°C° 0.2 mm 5 mps 716 mmHg 33%
    19:00 +38°C° 0.2 mm 4 mps 716 mmHg 35%
    20:00 +38°C° 0.2 mm 4 mps 716 mmHg 37%
    21:00 +37°C° 0.1 mm 4 mps 716 mmHg 40%
    22:00 +36°C° 0.1 mm 5 mps 717 mmHg 43%
    23:00 +36°C° 0.1 mm 5 mps 717 mmHg 46%

    23 Junio, Domingo

    Tiempo Temperatura Precipitaciones Viento Presión Humedad
    00:00 +36°C° 0 mm 5 mps 716 mmHg 45%
    01:00 +35°C° 0 mm 4 mps 716 mmHg 45%
    02:00 +35°C° 0 mm 3 mps 716 mmHg 44%
    03:00 +35°C° 0 mm 4 mps 716 mmHg 46%
    04:00 +34°C° 0 mm 4 mps 716 mmHg 49%
    05:00 +34°C° 0 mm 5 mps 716 mmHg 51%
    06:00 +35°C° 0 mm 5 mps 716 mmHg 49%
    07:00 +35°C° 0 mm 6 mps 716 mmHg 47%
    08:00 +36°C° 0 mm 6 mps 717 mmHg 45%
    09:00 +39°C° 0 mm 6 mps 717 mmHg 41%
    10:00 +40°C° 0 mm 6 mps 717 mmHg 36%
    11:00 +42°C° 0 mm 6 mps 717 mmHg 32%
    12:00 +43°C° 0 mm 5 mps 717 mmHg 29%
    13:00 +44°C° 0 mm 4 mps 716 mmHg 27%
    14:00 +44°C° 0 mm 3 mps 716 mmHg 24%
    15:00 +44°C° 0 mm 3 mps 715 mmHg 24%
    16:00 +44°C° 0 mm 4 mps 715 mmHg 23%
    17:00 +44°C° 0 mm 4 mps 714 mmHg 23%
    18:00 +43°C° 0 mm 4 mps 715 mmHg 25%
    19:00 +42°C° 0 mm 4 mps 715 mmHg 27%
    20:00 +41°C° 0 mm 4 mps 715 mmHg 29%
    21:00 +41°C° 0 mm 4 mps 715 mmHg 31%
    22:00 +40°C° 0 mm 4 mps 715 mmHg 32%
    23:00 +40°C° 0 mm 4 mps 716 mmHg 34%
    Mostrar más